Weather History for Columbia, MO

Change the Weather History Date:

Tuesday, May 14, 2013

  Actual Average Record
Temperature  
Mean Temperature 72 °F 63 °F  
Max Temperature 89 °F 74 °F 90 °F (1987)
Min Temperature 54 °F 53 °F 33 °F (1895)
Degree Days  
Heating Degree Days 0 4  
Month to date heating degree days 120 68  
Since 1 July heating degree days 4881 4971  
Cooling Degree Days 7 2  
Month to date cooling degree days 19 21  
Year to date cooling degree days 41 46  
Growing Degree Days 22 (Base 50)    
Moisture  
Dew Point 52 °F    
Average Humidity 54    
Maximum Humidity 80    
Minimum Humidity 27    
Precipitation  
Precipitation 0.00 in 0.16 in 4.10 in (1970)
Month to date precipitation 1.36 2.37  
Year to date precipitation 18.28 13.94  
Snow  
Snow 0.00 in 0.00 in 0.00 in (2013)
Month to date snowfall T 0.0  
Since 1 July snowfall 35.0 18.0  
Snow Depth 0.00 in    
Sea Level Pressure  
Sea Level Pressure 29.88 in    
Wind  
Wind Speed 14 mph (SW)    
Max Wind Speed 25 mph    
Max Gust Speed 35 mph    
Visibility 10 miles    
Events      
T = Trace of Precipitation, MM = Missing Value Source: NWS Daily Summary

Daily Weather History Graph

Daily Weather History Graph

Search for Another Location

Airport:

Trip Planner

Search our weather history database for the weather conditions in past years. The results will help you decide how hot, cold, wet, or windy it might be!

Date:

Astronomy

May. 14, 2013 Rise Set
Actual Time 5:57 AM CDT 8:13 PM CDT
Civil Twilight 5:27 AM CDT 8:43 PM CDT
Nautical Twilight 4:50 AM CDT 9:20 PM CDT
Astronomical Twilight 4:10 AM CDT 10:01 PM CDT
Moon 9:37 AM CDT (5/14) No Moon Set
Length of Visible Light 15h 16m
Length of Day
14h 16m
Waxing Crescent, 19% of the Moon is Illuminated
May 14
Waxing Crescent
May 17
First Quarter
May 24
Full
May 31
Last Quarter
Jun 8
New

Hourly Weather History & Observations

Time (CDT) Temp. Heat Index Dew Point Humidity Pressure Visibility Wind Dir Wind Speed Gust Speed Precip Events Conditions
12:54 AM 59.0 °F - 48.9 °F 69% 29.96 in 10.0 mi South 9.2 mph - N/A   Clear
1:54 AM 57.0 °F - 48.9 °F 74% 29.94 in 10.0 mi South 6.9 mph - N/A   Clear
2:54 AM 55.9 °F - 48.9 °F 77% 29.93 in 10.0 mi South 5.8 mph - N/A   Clear
3:54 AM 55.0 °F - 48.9 °F 80% 29.91 in 10.0 mi South 8.1 mph - N/A   Clear
4:54 AM 55.0 °F - 48.9 °F 80% 29.90 in 10.0 mi South 9.2 mph - N/A   Clear
5:54 AM 57.0 °F - 51.1 °F 81% 29.89 in 10.0 mi South 8.1 mph - N/A   Clear
6:54 AM 59.0 °F - 52.0 °F 78% 29.90 in 10.0 mi South 8.1 mph - N/A   Clear
7:54 AM 66.9 °F - 54.0 °F 63% 29.90 in 10.0 mi SW 11.5 mph - N/A   Clear
8:54 AM 72.0 °F - 54.0 °F 53% 29.89 in 10.0 mi WSW 13.8 mph - N/A   Clear
9:54 AM 77.0 °F - 53.1 °F 43% 29.89 in 10.0 mi WSW 15.0 mph 20.7 mph N/A   Clear
10:54 AM 80.1 °F 79.9 °F 53.1 °F 39% 29.89 in 10.0 mi WSW 17.3 mph 27.6 mph N/A   Clear
11:54 AM 82.9 °F 81.8 °F 53.1 °F 36% 29.89 in 10.0 mi WSW 17.3 mph - N/A   Clear
12:54 PM 84.9 °F 83.6 °F 55.0 °F 36% 29.88 in 10.0 mi SW 18.4 mph 24.2 mph N/A   Clear
1:54 PM 86.0 °F 84.2 °F 54.0 °F 33% 29.87 in 10.0 mi SW 20.7 mph - N/A   Clear
2:54 PM 88.0 °F 85.7 °F 53.1 °F 30% 29.86 in 10.0 mi WSW 23.0 mph 29.9 mph N/A   Clear
3:54 PM 89.1 °F 86.7 °F 53.1 °F 29% 29.84 in 10.0 mi SW 20.7 mph - N/A   Clear
4:54 PM 89.1 °F - 52.0 °F 28% 29.83 in 10.0 mi SW 20.7 mph - N/A   Clear
5:54 PM 87.1 °F - 52.0 °F 30% 29.83 in 10.0 mi WSW 16.1 mph 24.2 mph N/A   Clear
6:54 PM 84.9 °F - 52.0 °F 32% 29.82 in 10.0 mi WSW 16.1 mph - N/A   Clear
7:54 PM 77.0 °F - 54.0 °F 45% 29.82 in 10.0 mi SW 11.5 mph - N/A   Clear
8:54 PM 79.0 °F - 51.1 °F 38% 29.83 in 10.0 mi SW 16.1 mph 23.0 mph N/A   Clear
9:54 PM 75.9 °F - 50.0 °F 40% 29.85 in 10.0 mi SSW 13.8 mph - N/A   Clear
10:54 PM 73.0 °F - 51.1 °F 46% 29.87 in 10.0 mi SSW 11.5 mph - N/A   Clear
11:54 PM 73.0 °F - 50.0 °F 44% 29.88 in 10.0 mi SW 11.5 mph - N/A   Clear